Mount Pleasant, IA

5:57 AM CDT on June 28, 2017 (GMT -0500)
Mount Pleasant Municipal

Weather History for KMPZ - October, 2013

Change the Weather History Date:

Sunday, October 6, 2013

  Actual Average Record
Temperature  
Mean Temperature 44 °F -  
Max Temperature 52 °F 67 °F 94 °F (1963)
Min Temperature 37 °F 45 °F 21 °F (1952)
Degree Days  
Heating Degree Days 21    
Moisture  
Dew Point 40 °F    
Average Humidity 81    
Maximum Humidity 95    
Minimum Humidity 58    
Precipitation  
Precipitation 0.00 in - - ()
Sea Level Pressure  
Sea Level Pressure 29.80 in    
Wind  
Wind Speed 7 mph (SW)    
Max Wind Speed 13 mph    
Max Gust Speed 17 mph    
Visibility 10 miles    
Events Rain    
Averages and records for this station are not official NWS values.
T = Trace of Precipitation, MM = Missing Value Source: NWS Daily Summary

Daily Weather History Graph

Daily Weather History Graph

Search for Another Location

Airport or City:

Trip Planner

Search our weather history database for the weather conditions in past years. The results will help you decide how hot, cold, wet, or windy it might be!

Date:

Astronomy

Oct. 06, 2013 Rise Set
Actual Time 7:08 AM CDT 6:39 PM CDT
Civil Twilight 6:40 AM CDT 7:06 PM CDT
Nautical Twilight 6:08 AM CDT 7:38 PM CDT
Astronomical Twilight 5:36 AM CDT 8:10 PM CDT
Moon 8:53 AM CDT (10/6) 7:37 PM CDT (10/6)
Length of Visible Light 12h 26m
Length of Day
11h 31m
Waxing Crescent, 3% of the Moon is Illuminated
Oct 6
Waxing Crescent
Oct 11
First Quarter
Oct 18
Full
Oct 26
Last Quarter
Nov 3
New

Hourly Weather History & Observations

Time (CDT) Temp. Windchill Dew Point Humidity Pressure Visibility Wind Dir Wind Speed Gust Speed Precip Events Conditions
12:15 AM 44.4 °F 41.2 °F 38.5 °F 80% 29.84 in 10.0 mi South 5.8 mph - N/A   Clear
12:35 AM 44.6 °F 41.4 °F 38.5 °F 79% 29.83 in 10.0 mi South 5.8 mph - N/A   Clear
12:55 AM 44.1 °F 40.8 °F 38.3 °F 80% 29.83 in 10.0 mi South 5.8 mph - N/A   Clear
1:15 AM 44.4 °F 40.5 °F 38.7 °F 80% 29.83 in 10.0 mi South 6.9 mph - N/A   Clear
1:35 AM 45.5 °F 41.8 °F 38.8 °F 78% 29.83 in 10.0 mi South 6.9 mph - N/A   Clear
1:55 AM 45.1 °F 41.4 °F 38.7 °F 78% 29.82 in 10.0 mi SSW 6.9 mph - N/A   Clear
2:15 AM 44.1 °F 40.8 °F 38.3 °F 80% 29.81 in 10.0 mi SSW 5.8 mph - N/A   Clear
2:35 AM 42.8 °F 38.6 °F 37.9 °F 83% 29.80 in 10.0 mi SSW 6.9 mph - N/A   Clear
2:55 AM 43.2 °F 39.7 °F 38.3 °F 83% 29.80 in 10.0 mi SSW 5.8 mph - N/A   Clear
3:15 AM 42.8 °F 38.6 °F 37.6 °F 82% 29.79 in 10.0 mi SSW 6.9 mph - N/A   Clear
3:35 AM 42.3 °F 37.9 °F 37.4 °F 83% 29.79 in 10.0 mi SSW 6.9 mph - N/A   Clear
3:55 AM 42.1 °F 38.4 °F 37.4 °F 83% 29.80 in 10.0 mi SSW 5.8 mph - N/A   Clear
4:15 AM 41.5 °F 37.8 °F 37.0 °F 84% 29.80 in 10.0 mi SSW 5.8 mph - N/A   Clear
4:35 AM 41.0 °F 37.1 °F 36.5 °F 84% 29.80 in 10.0 mi SW 5.8 mph - N/A   Clear
4:55 AM 40.1 °F 36.9 °F 36.5 °F 87% 29.79 in 10.0 mi SSW 4.6 mph - N/A   Clear
5:15 AM 39.2 °F 35.9 °F 36.0 °F 88% 29.80 in 10.0 mi SSW 4.6 mph - N/A   Clear
5:35 AM 37.9 °F 33.5 °F 34.9 °F 89% 29.79 in 10.0 mi SSE 5.8 mph - N/A   Clear
5:55 AM 38.7 °F 34.3 °F 36.1 °F 91% 29.79 in 10.0 mi South 5.8 mph - N/A   Clear
6:15 AM 38.8 °F 34.6 °F 36.0 °F 89% 29.79 in 10.0 mi South 5.8 mph - N/A   Clear
6:35 AM 38.5 °F 35.0 °F 35.6 °F 89% 29.79 in 10.0 mi SSW 4.6 mph - N/A   Clear
6:55 AM 38.1 °F 32.9 °F 35.4 °F 90% 29.80 in 10.0 mi SSW 6.9 mph - N/A   Clear
7:15 AM 39.2 °F 35.0 °F 35.8 °F 88% 29.79 in 10.0 mi South 5.8 mph - N/A   Clear
7:35 AM 39.4 °F 36.1 °F 36.3 °F 89% 29.79 in 10.0 mi SSW 4.6 mph - N/A   Clear
7:55 AM 41.2 °F 37.3 °F 36.9 °F 85% 29.79 in 10.0 mi SSW 5.8 mph - N/A   Clear
8:15 AM 43.0 °F 41.3 °F 36.5 °F 78% 29.78 in 10.0 mi SW 3.5 mph - N/A   Clear
8:35 AM 44.6 °F 40.2 °F 36.1 °F 72% 29.79 in 10.0 mi SW 8.1 mph - N/A   Clear
8:55 AM 45.5 °F 40.8 °F 36.5 °F 71% 29.80 in 10.0 mi SW 9.2 mph - N/A   Mostly Cloudy
9:15 AM 45.7 °F 41.0 °F 36.5 °F 70% 29.79 in 10.0 mi SW 9.2 mph - N/A   Overcast
9:35 AM 46.6 °F - 36.5 °F 68% 29.79 in 10.0 mi SW 8.1 mph - N/A   Overcast
9:55 AM 46.8 °F - 36.7 °F 68% 29.79 in 10.0 mi SW 5.8 mph - N/A   Overcast
10:15 AM 47.5 °F - 37.0 °F 67% 29.79 in 10.0 mi SW 9.2 mph - N/A   Overcast
10:35 AM 47.7 °F - 36.7 °F 66% 29.79 in 10.0 mi SW 9.2 mph - N/A   Overcast
10:55 AM 47.8 °F - 36.3 °F 64% 29.80 in 10.0 mi WSW 11.5 mph - N/A   Overcast
11:15 AM 48.4 °F - 36.3 °F 63% 29.80 in 10.0 mi SW 10.4 mph - N/A   Overcast
11:35 AM 49.1 °F - 36.0 °F 61% 29.80 in 10.0 mi SW 9.2 mph - N/A   Overcast
11:55 AM 48.6 °F - 36.0 °F 62% 29.80 in 10.0 mi WSW 12.7 mph - N/A   Overcast
12:15 PM 48.2 °F - 37.4 °F 66% 29.80 in 10.0 mi WSW 10.4 mph - N/A   Overcast
12:35 PM 48.2 °F - 37.9 °F 68% 29.80 in 10.0 mi SSW 9.2 mph - N/A   Overcast
12:55 PM 49.1 °F - 37.6 °F 64% 29.79 in 10.0 mi SSW 8.1 mph - N/A   Overcast
1:15 PM 50.5 °F - 37.8 °F 62% 29.78 in 10.0 mi SW 5.8 mph - N/A   Overcast
1:35 PM 51.8 °F - 37.6 °F 58% 29.77 in 10.0 mi SW 8.1 mph - N/A   Overcast
1:55 PM 50.9 °F - 37.2 °F 59% 29.77 in 10.0 mi SW 10.4 mph - N/A   Overcast
2:15 PM 50.0 °F - 39.0 °F 66% 29.77 in 10.0 mi West 8.1 mph 17.3 mph N/A   Overcast
2:35 PM 51.3 °F - 38.7 °F 62% 29.76 in 10.0 mi WSW 9.2 mph - N/A   Overcast
2:55 PM 47.8 °F - 41.9 °F 80% 29.77 in 4.0 mi SW 9.2 mph 16.1 mph N/A Rain Rain
3:15 PM 46.8 °F - 41.9 °F 83% 29.77 in 7.0 mi West 5.8 mph - N/A Rain Rain
3:35 PM 47.1 °F - 42.6 °F 84% 29.77 in 5.0 mi SW 8.1 mph - N/A Rain Light Rain
3:55 PM 48.2 °F - 42.6 °F 81% 29.77 in 10.0 mi WSW 6.9 mph - N/A Rain Light Rain
4:15 PM 46.4 °F 42.4 °F 41.7 °F 84% 29.78 in 5.0 mi WSW 8.1 mph - N/A   Drizzle
4:35 PM 46.6 °F - 43.2 °F 88% 29.78 in 10.0 mi SW 6.9 mph - N/A   Light Drizzle
4:55 PM 46.9 °F - 43.7 °F 88% 29.79 in 10.0 mi SW 5.8 mph - N/A Rain Light Rain
5:15 PM 47.3 °F - 44.1 °F 88% 29.79 in 10.0 mi WSW 9.2 mph - N/A   Drizzle
5:35 PM 47.3 °F - 43.7 °F 87% 29.80 in 10.0 mi WSW 6.9 mph - N/A   Drizzle
5:55 PM 47.1 °F - 44.1 °F 89% 29.80 in 10.0 mi SW 4.6 mph - N/A Rain Light Rain
6:15 PM 47.1 °F - 44.6 °F 91% 29.80 in 10.0 mi WSW 6.9 mph - N/A Rain Light Rain
6:35 PM 46.8 °F - 44.6 °F 92% 29.80 in 10.0 mi WSW 8.1 mph - N/A Rain Light Rain
6:55 PM 46.8 °F - 44.6 °F 92% 29.80 in 10.0 mi WSW 5.8 mph - N/A   Drizzle
7:15 PM 46.6 °F - 44.6 °F 93% 29.80 in 10.0 mi WSW 4.6 mph - N/A   Overcast
7:35 PM 46.4 °F 45.2 °F 44.6 °F 93% 29.81 in 10.0 mi West 3.5 mph - N/A   Overcast
7:55 PM 45.5 °F 43.2 °F 43.7 °F 93% 29.81 in 10.0 mi WSW 4.6 mph - N/A   Mostly Cloudy
8:15 PM 45.5 °F 43.2 °F 43.9 °F 94% 29.81 in 10.0 mi West 4.6 mph - N/A   Mostly Cloudy
8:35 PM 45.5 °F 43.2 °F 43.9 °F 94% 29.82 in 10.0 mi WSW 4.6 mph - N/A   Mostly Cloudy
8:55 PM 46.0 °F 44.8 °F 44.4 °F 94% 29.82 in 10.0 mi West 3.5 mph - N/A   Overcast
9:15 PM 46.4 °F 43.5 °F 44.6 °F 93% 29.83 in 10.0 mi West 5.8 mph - N/A   Overcast
9:35 PM 45.9 °F 44.6 °F 44.2 °F 94% 29.84 in 10.0 mi West 3.5 mph - N/A   Overcast
9:55 PM 46.0 °F 43.1 °F 44.6 °F 95% 29.85 in 10.0 mi West 5.8 mph - N/A   Overcast
10:15 PM 46.4 °F 43.5 °F 44.8 °F 94% 29.85 in 10.0 mi West 5.8 mph - N/A   Overcast
10:35 PM 46.8 °F - 45.0 °F 93% 29.86 in 10.0 mi West 5.8 mph - N/A   Overcast
10:55 PM 46.9 °F - 45.1 °F 93% 29.86 in 10.0 mi West 6.9 mph - N/A   Overcast
11:15 PM 47.3 °F - 45.5 °F 93% 29.86 in 10.0 mi West 6.9 mph - N/A   Overcast
11:35 PM 47.3 °F - 45.1 °F 92% 29.86 in 10.0 mi West 8.1 mph - N/A   Overcast
11:55 PM 47.5 °F - 45.5 °F 93% 29.86 in 10.0 mi West 6.9 mph - N/A   Overcast